• In Hungary
  • List of Countries
  • For 7 days
  • Water Temperature
  • Satellite Maps
  • Weather Map
  • News
  • Weather Widgets
  • user-avatar
    Login

    Hourly Weather Stankivtsi

    Today, 20 June, Wednesday

    Time Temperature Precipitation Wind Pressure Humidity
    00:00 +20°C° 0 mm 2 mps 726 mmHg 96%
    01:00 +21°C° 0 mm 1 mps 726 mmHg 95%
    02:00 +21°C° 0 mm 1 mps 727 mmHg 95%
    03:00 +21°C° 0 mm 1 mps 727 mmHg 93%
    04:00 +20°C° 0 mm 1 mps 727 mmHg 92%
    05:00 +20°C° 0 mm 1 mps 727 mmHg 92%
    06:00 +19°C° 0 mm 2 mps 727 mmHg 96%
    07:00 +19°C° 0 mm 2 mps 727 mmHg 98%
    08:00 +20°C° 0 mm 1 mps 727 mmHg 98%
    09:00 +21°C° 0 mm 1 mps 727 mmHg 97%
    10:00 +21°C° 0 mm 1 mps 728 mmHg 95%
    11:00 +23°C° 0 mm 1 mps 728 mmHg 90%
    12:00 +24°C° 0 mm 1 mps 728 mmHg 89%
    13:00 +24°C° 0 mm 1 mps 728 mmHg 89%
    14:00 +25°C° 0 mm 2 mps 727 mmHg 89%
    15:00 +25°C° 0 mm 2 mps 727 mmHg 88%
    16:00 +25°C° 0 mm 2 mps 727 mmHg 90%
    17:00 +25°C° 0 mm 2 mps 727 mmHg 88%
    18:00 +25°C° 0 mm 2 mps 726 mmHg 83%
    19:00 +24°C° 0 mm 2 mps 726 mmHg 86%
    20:00 +23°C° 0 mm 1 mps 726 mmHg 95%
    21:00 +23°C° 0 mm 1 mps 726 mmHg 95%
    22:00 +22°C° 0 mm 1 mps 726 mmHg 99%
    23:00 +20°C° 0 mm 0 mps 726 mmHg 99%

    Tomorrow, 21 June, Thursday

    Time Temperature Precipitation Wind Pressure Humidity
    00:00 +20°C° 0 mm 0 mps 726 mmHg 97%
    01:00 +19°C° 0 mm 0 mps 725 mmHg 97%
    02:00 +21°C° 0 mm 1 mps 725 mmHg 96%
    03:00 +21°C° 0 mm 1 mps 725 mmHg 94%
    04:00 +21°C° 0 mm 1 mps 724 mmHg 91%
    05:00 +21°C° 0 mm 1 mps 724 mmHg 92%
    06:00 +21°C° 0 mm 1 mps 724 mmHg 92%
    07:00 +22°C° 0 mm 1 mps 724 mmHg 96%
    08:00 +24°C° 0 mm 1 mps 724 mmHg 94%
    09:00 +25°C° 0 mm 1 mps 724 mmHg 89%
    10:00 +26°C° 0 mm 1 mps 724 mmHg 86%
    11:00 +27°C° 0 mm 2 mps 724 mmHg 84%
    12:00 +27°C° 0 mm 2 mps 723 mmHg 79%
    13:00 +28°C° 0 mm 3 mps 722 mmHg 78%
    14:00 +28°C° 0 mm 3 mps 721 mmHg 78%
    15:00 +28°C° 0 mm 4 mps 721 mmHg 73%
    16:00 +28°C° 0 mm 4 mps 720 mmHg 79%
    17:00 +28°C° 0 mm 4 mps 720 mmHg 78%
    18:00 +27°C° 0 mm 3 mps 719 mmHg 81%
    19:00 +26°C° 0 mm 3 mps 719 mmHg 86%
    20:00 +25°C° 0 mm 3 mps 718 mmHg 89%
    21:00 +24°C° 0 mm 3 mps 718 mmHg 88%
    22:00 +22°C° 0 mm 3 mps 717 mmHg 89%
    23:00 +22°C° 0 mm 4 mps 717 mmHg 93%

    Day after tomorrow, 22 June, Friday

    Time Temperature Precipitation Wind Pressure Humidity
    00:00 +22°C° 0 mm 5 mps 717 mmHg 93%
    01:00 +21°C° 0 mm 5 mps 717 mmHg 95%
    02:00 +21°C° 0 mm 5 mps 718 mmHg 92%
    03:00 +21°C° 0 mm 5 mps 717 mmHg 93%
    04:00 +20°C° 0.1 mm 4 mps 717 mmHg 97%
    05:00 +17°C° 2.6 mm 5 mps 718 mmHg 95%
    06:00 +16°C° 0.1 mm 5 mps 718 mmHg 96%
    07:00 +15°C° 0 mm 5 mps 719 mmHg 99%
    08:00 +14°C° 0 mm 5 mps 719 mmHg 98%
    09:00 +13°C° 3.2 mm 4 mps 719 mmHg 99%
    10:00 +14°C° 0.1 mm 5 mps 720 mmHg 94%
    11:00 +15°C° 0 mm 5 mps 720 mmHg 92%
    12:00 +15°C° 0 mm 4 mps 720 mmHg 91%
    13:00 +15°C° 0 mm 5 mps 720 mmHg 88%
    14:00 +15°C° 0 mm 4 mps 719 mmHg 87%
    15:00 +15°C° 0.1 mm 4 mps 720 mmHg 86%
    16:00 +15°C° 0 mm 4 mps 720 mmHg 85%
    17:00 +15°C° 0 mm 5 mps 719 mmHg 84%
    18:00 +15°C° 0 mm 4 mps 719 mmHg 76%
    19:00 +14°C° 0 mm 4 mps 719 mmHg 80%
    20:00 +14°C° 0 mm 3 mps 719 mmHg 86%
    21:00 +13°C° 0 mm 3 mps 720 mmHg 88%
    22:00 +14°C° 0 mm 2 mps 720 mmHg 90%
    23:00 +12°C° 0 mm 3 mps 720 mmHg 90%

    23 June, Saturday

    Time Temperature Precipitation Wind Pressure Humidity
    00:00 +12°C° 0 mm 3 mps 720 mmHg 93%
    01:00 +11°C° 0 mm 3 mps 720 mmHg 94%
    02:00 +11°C° 0 mm 3 mps 720 mmHg 95%
    03:00 +10°C° 0 mm 4 mps 720 mmHg 96%
    04:00 +10°C° 0 mm 4 mps 720 mmHg 98%
    05:00 +10°C° 0 mm 4 mps 720 mmHg 97%
    06:00 +11°C° 0 mm 4 mps 721 mmHg 97%
    07:00 +11°C° 0 mm 4 mps 721 mmHg 96%
    08:00 +12°C° 0 mm 4 mps 721 mmHg 94%
    09:00 +13°C° 0 mm 4 mps 721 mmHg 91%
    10:00 +14°C° 0 mm 4 mps 722 mmHg 88%
    11:00 +16°C° 0 mm 3 mps 722 mmHg 85%
    12:00 +17°C° 0 mm 3 mps 722 mmHg 80%
    13:00 +18°C° 0 mm 3 mps 721 mmHg 74%
    14:00 +17°C° 0.4 mm 4 mps 721 mmHg 89%

    24 June, Sunday

    Time Temperature Precipitation Wind Pressure Humidity

    25 June, Monday

    Time Temperature Precipitation Wind Pressure Humidity
    Show more